Location: Newark
(35.8582°N, 82.7116°W)
Time: 23:25:13
(UTC+00:00)

Envisat - Visible Passes

Search period start: 17 September 2019 00:00
Search period end: 27 September 2019 00:00
Orbit: 764 x 766 km, 98.1° (Epoch: 17 September)

Date Brightness Start Highest point End Pass type
(mag) Time Alt. Az. Time Alt. Az. Time Alt. Az.
17 Sep 6.1 01:14:15 10° WSW 01:16:03 12° W 01:17:51 10° WNW visible
18 Sep 5.2 00:34:39 10° SSW 00:38:59 28° W 00:43:21 10° NW visible
18 Sep 3.5 23:57:04 10° S 00:02:06 68° WSW 00:07:11 10° NNW visible
20 Sep 5.9 01:01:42 10° SW 01:04:41 16° W 01:07:41 10° NW visible
21 Sep 4.7 00:23:01 10° SSW 00:27:40 36° W 00:32:22 10° NNW visible
21 Sep 3.1 23:45:46 10° SSE 23:50:51 87° WSW 23:55:58 10° NNW visible
23 Sep 5.7 00:49:39 10° SW 00:53:20 20° W 00:57:03 10° NW visible
24 Sep 4.1 00:11:31 10° S 00:16:22 47° W 00:21:17 10° NNW visible
25 Sep 6.3 01:18:11 10° W 01:19:05 10° W 01:20:00 10° W visible
26 Sep 5.3 00:37:49 10° SSW 00:42:00 26° W 00:46:13 10° NW visible
